Wind_Speed
8 8 7 7 6 6 6 6 7 7 8 9 10 11 11 12 13 13 15 16 16 17 17 16 16 16 15 13 12 11 10 10 11 12 13 15 16 18 20 22 24 24 26
9 8 8 7 7 7 7 7 7 8 9 9 10 11 12 12 13 14 15 16 16 17 17 17 16 16 15 13 12 10 9 9 10 11 12 14 15 17 19 21 24 24 25
8 8 8 8 7 7 8 7 7 8 9 10 10 11 12 12 13 14 15 16 17 17 17 17 16 16 15 13 12 10 9 8 8 9 10 11 13 16 18 21 23 24 25
8 8 8 8 7 8 8 8 8 9 9 10 10 11 12 12 13 14 15 16 17 17 17 17 17 16 15 13 12 10 8 7 6 7 8 9 11 14 17 19 22 23 24
8 8 8 7 7 8 8 9 9 9 10 10 10 11 11 12 13 14 14 16 17 17 17 17 16 15 14 13 11 9 7 6 5 5 6 8 9 12 15 18 20 22 24
7 7 7 7 8 8 8 9 9 10 10 10 10 11 11 12 13 14 14 15 16 17 17 17 16 15 14 13 11 9 7 5 4 5 6 7 9 11 13 15 17 20 23
6 7 7 7 8 8 8 8 9 10 10 10 10 11 11 12 13 14 14 15 16 17 17 16 15 14 13 12 11 9 7 6 5 5 5 7 8 10 12 14 16 19 21
6 7 7 8 8 8 8 9 9 10 10 10 11 11 11 12 13 13 14 15 15 16 16 16 15 14 13 12 11 10 8 6 5 5 5 6 7 9 10 13 15 17 19
6 6 7 7 8 9 9 9 10 10 10 11 11 11 12 12 13 13 14 14 15 15 15 15 15 14 13 12 11 10 8 7 6 5 5 5 6 7 9 11 13 15 16
6 6 7 8 9 10 10 10 10 11 11 11 11 12 12 12 13 13 14 14 15 15 15 14 14 14 13 12 11 10 9 7 6 6 5 5 6 7 8 10 12 14 15
6 7 7 9 10 11 11 11 12 12 12 12 12 13 13 13 13 14 14 14 14 15 15 14 14 14 14 13 12 11 9 8 7 6 5 5 5 6 7 9 11 13 14
6 7 8 9 10 11 12 12 13 13 13 13 13 14 14 14 14 14 14 14 15 15 14 14 13 13 13 13 12 11 10 9 7 6 6 5 5 6 6 8 10 12 14
7 8 9 10 11 11 12 13 13 13 13 14 14 15 15 15 15 15 15 15 15 15 14 14 14 13 13 13 12 12 11 9 8 7 6 5 4 5 6 7 10 11 13
8 9 10 11 11 12 13 13 13 14 14 14 15 15 16 16 16 16 16 15 15 15 15 14 14 14 14 13 12 12 11 10 8 7 6 5 5 5 6 7 8 10 12
10 11 12 12 13 13 14 14 14 15 15 15 16 16 17 17 17 17 17 16 16 16 16 15 14 14 14 13 13 12 11 10 9 8 7 6 6 7 7 7 9 10 11
12 13 13 14 14 15 15 15 16 16 16 17 17 18 18 18 18 18 18 18 17 17 17 16 15 15 14 14 14 13 12 11 10 9 9 8 8 8 8 8 9 10 11
14 14 15 15 16 17 17 17 17 18 18 19 19 19 19 19 19 19 19 19 19 18 18 18 17 16 16 15 14 14 13 12 11 11 10 9 8 9 9 10 10 10 11
16 17 17 18 19 19 20 20 20 20 20 21 21 21 21 21 21 21 21 21 20 20 19 19 19 18 17 17 16 15 15 14 13 12 12 11 10 10 10 11 11 12 12
19 19 20 21 21 22 22 23 23 23 23 23 23 23 23 23 23 23 23 23 23 22 22 21 21 20 20 19 18 18 17 16 15 15 14 13 12 12 11 12 12 13 13
22 22 23 24 24 25 25 26 26 26 26 26 26 26 26 26 26 25 25 26 25 25 24 24 23 23 23 22 21 20 19 19 18 17 16 15 15 14 13 14 14 14 15
24 25 26 27 27 28 28 28 29 29 29 29 29 29 29 29 29 29 28 28 28 28 27 27 26 26 25 25 24 23 22 21 21 20 19 18 17 17 16 16 16 16 16
27 28 29 30 30 31 31 32 32 32 33 33 33 33 33 33 33 32 32 31 31 31 31 30 30 29 28 27 26 26 25 24 23 23 21 20 20 20 19 18 18 19 19
31 32 33 34 34 35 35 36 36 36 36 36 36 36 36 36 36 36 35 35 34 34 33 33 32 31 30 29 29 29 28 27 26 25 24 24 23 23 22 22 21 22 22
35 36 37 38 39 39 39 39 39 39 39 40 40 40 40 39 39 39 38 38 37 36 36 35 34 33 32 32 32 32 31 30 30 29 28 27 26 26 25 25 25 24 24
39 40 41 42 43 43 43 43 43 43 43 43 43 43 43 43 42 41 41 40 39 39 38 38 38 37 36 35 35 34 34 34 33 32 31 30 30 29 29 28 27 27 27
43 44 45 46 46 46 46 46 46 46 46 46 46 46 46 45 45 44 44 43 42 42 42 41 41 40 39 38 37 37 37 36 36 35 34 33 33 32 31 30 30 29 29
Wind_Direction
220 224 229 229 239 249 261 274 286 299 309 316 323 328 333 339 342 343 344 344 343 342 341 339 338 335 331 327 322 311 295 281 267 256 249 243 237 231 227 224 221 221 220
222 230 237 238 245 252 262 274 286 299 307 315 323 327 332 338 341 343 345 345 345 344 343 342 340 338 335 333 327 319 303 287 269 256 248 244 238 230 227 224 221 220 220
227 234 241 244 250 260 266 276 287 298 306 313 320 326 331 336 341 343 345 347 347 347 346 345 343 341 339 337 333 325 314 296 273 257 248 244 239 231 228 224 222 220 220
227 235 242 248 256 264 273 280 286 296 304 310 317 323 330 335 340 343 345 348 349 348 348 346 345 344 343 341 338 331 322 307 281 260 249 244 238 232 229 227 224 222 221
227 236 246 255 265 273 277 282 288 294 300 306 313 319 327 333 338 342 344 347 349 349 349 348 347 347 346 345 343 339 332 318 292 269 255 246 241 234 230 227 225 222 221
232 244 253 260 270 277 279 282 286 290 294 302 309 316 323 329 335 340 342 345 348 349 350 350 349 349 349 350 350 348 343 331 307 283 264 252 245 238 230 226 226 223 221
236 248 257 264 273 279 282 288 289 291 293 299 306 312 319 325 331 336 340 342 345 348 350 350 350 351 351 353 352 350 347 336 316 295 276 262 251 243 234 229 227 223 219
240 251 256 266 274 281 286 291 295 296 297 300 304 309 315 322 327 333 337 341 344 347 350 351 352 351 352 352 352 349 343 335 322 306 287 268 254 244 237 232 228 223 220
247 255 262 270 276 281 287 288 294 297 299 302 303 306 312 318 323 328 333 338 341 345 349 352 353 352 353 353 351 349 345 337 327 315 298 276 257 245 237 232 229 224 222
258 265 270 275 279 282 285 287 292 294 298 301 302 305 309 314 320 324 328 332 336 341 345 348 352 353 353 354 352 348 343 336 329 318 302 281 261 247 238 231 229 225 224
271 276 280 284 285 286 288 288 291 292 295 299 301 304 307 310 314 319 324 327 331 335 340 343 346 349 351 350 348 347 343 337 329 319 309 291 267 249 244 230 226 227 227
281 287 290 293 294 293 292 292 293 293 294 297 299 300 303 306 309 314 318 322 326 330 333 336 339 343 345 347 346 344 340 337 334 327 317 301 279 257 250 234 229 229 228
285 290 293 295 296 297 296 295 294 294 295 296 297 298 300 302 304 308 312 316 320 324 326 329 332 336 340 342 343 344 341 336 332 327 322 306 285 265 260 241 235 232 230
289 293 294 296 296 296 295 296 296 295 296 297 298 297 297 298 300 302 306 310 314 317 319 321 325 328 332 335 337 338 340 338 333 324 316 301 283 270 265 250 242 237 235
290 292 294 296 296 297 295 294 295 296 297 298 298 298 297 297 298 299 301 303 307 310 312 313 316 320 324 327 328 328 330 331 330 324 313 302 288 275 271 260 249 242 239
287 290 292 294 295 297 296 294 295 296 296 297 297 297 297 297 297 297 298 299 301 303 306 308 309 311 314 317 319 319 320 320 319 316 314 304 292 281 273 265 255 246 241
287 288 290 292 294 295 297 297 296 295 296 296 296 295 295 296 296 295 296 297 297 298 300 301 302 304 306 307 309 310 309 309 308 307 304 303 294 285 276 266 258 251 245
286 287 289 291 293 293 294 294 295 295 295 295 295 295 294 294 293 292 293 293 294 295 295 296 297 298 299 300 299 300 301 300 300 299 296 294 290 286 279 269 262 257 251
285 285 286 289 291 291 291 292 292 292 292 293 293 293 293 292 291 290 290 290 290 291 291 292 292 292 292 293 293 292 292 292 292 290 290 287 284 283 279 272 266 261 257
285 285 286 287 288 290 290 290 291 291 290 290 290 290 289 289 288 287 287 287 287 288 288 288 287 287 287 287 286 286 286 285 286 284 284 283 280 277 275 272 268 264 261
285 286 287 288 289 290 290 290 289 289 289 288 287 287 287 286 285 284 285 285 285 285 285 285 284 283 282 282 281 280 281 281 280 280 278 277 275 273 271 269 267 265 263
285 285 287 288 288 289 289 288 288 288 287 287 287 286 286 285 284 282 282 282 283 283 283 283 282 281 279 278 276 275 275 275 275 275 274 272 271 271 270 268 266 264 263
285 286 286 287 287 287 287 287 287 287 287 286 286 285 284 284 282 281 281 281 281 281 281 280 279 277 276 275 273 271 270 270 271 271 270 268 267 267 267 266 265 264 264
285 285 285 286 286 286 286 286 285 285 286 285 285 285 284 283 281 280 280 279 278 277 278 277 277 275 274 273 271 270 268 267 267 268 268 267 266 265 266 265 265 265 265
286 285 285 285 285 285 285 285 284 285 285 285 285 285 284 283 282 279 277 276 275 274 274 274 274 274 273 271 270 269 268 266 265 265 265 265 265 264 265 265 265 265 264
287 286 286 285 285 285 285 285 285 284 284 284 284 284 284 283 281 279 276 274 273 273 272 272 272 272 271 270 268 267 267 265 264 263 264 264 264 264 264 265 265 265 265
Height
5853 5854 5855 5856 5856 5857 5857 5857 5856 5855 5854 5853 5851 5849 5847 5844 5841 5838 5835 5831 5828 5825 5821 5818 5815 5811 5808 5805 5803 5801 5800 5799 5799 5800 5800 5801 5803 5805 5807 5810 5813 5816 5820
5852 5853 5854 5855 5855 5855 5856 5855 5855 5854 5853 5851 5850 5848 5845 5843 5840 5837 5834 5830 5827 5823 5820 5816 5813 5809 5806 5803 5800 5798 5797 5796 5796 5797 5797 5798 5800 5801 5803 5806 5809 5812 5816
5851 5852 5853 5854 5854 5854 5854 5854 5853 5853 5852 5850 5848 5847 5844 5842 5839 5836 5832 5829 5825 5822 5818 5815 5811 5808 5804 5801 5798 5796 5795 5794 5793 5793 5794 5795 5796 5798 5800 5802 5805 5808 5812
5850 5851 5852 5852 5853 5853 5853 5852 5852 5851 5850 5849 5847 5845 5843 5841 5838 5835 5831 5828 5824 5821 5817 5813 5810 5806 5803 5800 5797 5795 5793 5792 5792 5792 5792 5793 5794 5795 5797 5799 5802 5805 5808
5849 5850 5851 5851 5851 5851 5851 5851 5851 5850 5849 5847 5846 5844 5842 5839 5836 5833 5830 5827 5823 5820 5816 5812 5808 5805 5802 5799 5796 5793 5792 5791 5790 5790 5791 5791 5792 5793 5794 5796 5798 5801 5804
5848 5849 5849 5850 5850 5850 5850 5849 5849 5848 5847 5845 5844 5842 5840 5838 5835 5832 5829 5826 5822 5819 5815 5811 5807 5804 5801 5798 5795 5793 5791 5790 5790 5789 5789 5790 5790 5791 5792 5794 5795 5798 5801
5847 5847 5848 5849 5849 5848 5848 5847 5847 5846 5845 5843 5842 5840 5838 5836 5834 5831 5828 5825 5821 5818 5814 5810 5807 5804 5801 5798 5795 5793 5791 5790 5789 5788 5788 5788 5788 5788 5790 5791 5793 5795 5797
5846 5846 5847 5847 5847 5847 5846 5846 5845 5844 5843 5841 5840 5838 5837 5834 5832 5829 5826 5823 5820 5817 5813 5810 5807 5803 5800 5798 5795 5793 5791 5789 5788 5787 5786 5786 5786 5787 5787 5789 5790 5792 5795
5844 5845 5845 5845 5845 5845 5844 5843 5843 5842 5841 5839 5838 5836 5835 5833 5830 5828 5825 5822 5819 5816 5813 5810 5806 5803 5800 5797 5795 5793 5790 5789 5787 5786 5785 5785 5784 5785 5785 5786 5788 5790 5792
5843 5843 5843 5843 5843 5842 5842 5841 5840 5839 5838 5837 5836 5834 5833 5831 5828 5826 5824 5821 5818 5815 5812 5809 5806 5803 5800 5797 5795 5792 5790 5788 5787 5785 5784 5783 5783 5783 5783 5784 5786 5787 5790
5841 5841 5841 5841 5840 5840 5839 5838 5838 5837 5836 5834 5833 5832 5830 5828 5827 5824 5822 5820 5817 5814 5811 5809 5806 5803 5800 5797 5794 5792 5790 5788 5786 5784 5783 5782 5781 5782 5782 5783 5784 5785 5787
5839 5839 5839 5839 5838 5837 5837 5836 5835 5834 5833 5832 5830 5829 5828 5826 5824 5822 5820 5818 5815 5813 5810 5808 5805 5802 5800 5797 5794 5791 5789 5787 5785 5783 5782 5781 5780 5780 5781 5781 5782 5783 5785
5838 5837 5837 5836 5836 5835 5834 5833 5832 5831 5830 5828 5827 5826 5824 5823 5821 5819 5818 5816 5813 5811 5808 5806 5804 5801 5799 5796 5793 5791 5788 5786 5784 5783 5781 5780 5779 5779 5779 5779 5780 5781 5782
5836 5835 5834 5834 5833 5832 5831 5830 5829 5828 5827 5825 5824 5822 5821 5819 5818 5816 5814 5813 5811 5809 5806 5804 5802 5800 5797 5795 5792 5790 5788 5786 5784 5782 5780 5779 5778 5778 5778 5778 5778 5779 5779
5833 5832 5832 5831 5830 5829 5828 5827 5825 5824 5823 5822 5820 5819 5817 5816 5814 5813 5811 5809 5808 5806 5804 5802 5800 5798 5796 5793 5791 5789 5787 5784 5783 5781 5779 5778 5777 5777 5776 5776 5776 5777 5777
5830 5829 5829 5828 5827 5825 5824 5823 5822 5820 5819 5818 5816 5815 5813 5812 5810 5809 5807 5806 5804 5802 5800 5799 5797 5795 5793 5791 5789 5787 5785 5783 5781 5779 5778 5777 5776 5775 5774 5774 5774 5774 5775
5826 5826 5825 5824 5823 5821 5820 5819 5817 5816 5815 5814 5812 5811 5809 5808 5806 5805 5803 5802 5800 5798 5797 5795 5793 5792 5790 5788 5786 5784 5783 5781 5779 5777 5776 5774 5773 5773 5772 5772 5771 5771 5772
5822 5821 5820 5819 5818 5817 5815 5814 5813 5811 5810 5809 5807 5806 5804 5803 5801 5800 5798 5797 5795 5794 5792 5790 5789 5787 5786 5785 5783 5781 5779 5778 5776 5774 5773 5772 5771 5770 5769 5769 5769 5768 5769
5817 5816 5815 5814 5813 5811 5810 5808 5807 5806 5804 5803 5801 5800 5799 5797 5796 5794 5793 5791 5790 5788 5787 5785 5784 5782 5781 5780 5778 5777 5775 5774 5773 5771 5770 5769 5768 5767 5766 5766 5765 5765 5765
5810 5809 5808 5807 5806 5805 5803 5802 5800 5799 5797 5796 5795 5793 5792 5790 5789 5787 5786 5785 5783 5782 5780 5779 5777 5776 5775 5774 5773 5771 5770 5769 5768 5767 5766 5765 5764 5763 5762 5762 5761 5761 5761
5803 5802 5801 5800 5799 5797 5796 5794 5793 5791 5790 5788 5787 5785 5783 5782 5780 5779 5778 5777 5776 5774 5773 5772 5770 5769 5768 5767 5766 5764 5764 5763 5762 5761 5760 5760 5759 5758 5757 5757 5757 5757 5756
5796 5795 5793 5792 5790 5789 5787 5785 5783 5782 5780 5778 5777 5776 5774 5772 5771 5770 5769 5767 5766 5765 5764 5762 5761 5760 5759 5758 5758 5757 5756 5756 5755 5754 5754 5754 5753 5752 5752 5752 5751 5751 5751
5787 5786 5784 5783 5781 5779 5777 5775 5773 5771 5769 5767 5766 5764 5763 5761 5760 5759 5758 5757 5755 5754 5753 5752 5751 5750 5749 5749 5748 5748 5747 5747 5747 5747 5747 5746 5746 5745 5745 5745 5745 5744 5744
5777 5776 5774 5772 5770 5767 5765 5763 5761 5759 5757 5755 5753 5751 5750 5748 5747 5746 5745 5744 5743 5742 5742 5741 5740 5740 5739 5739 5738 5737 5737 5737 5737 5737 5738 5738 5737 5737 5737 5737 5737 5737 5737
5766 5764 5762 5759 5757 5755 5752 5750 5748 5746 5744 5742 5740 5738 5736 5735 5733 5732 5731 5731 5730 5729 5729 5729 5728 5728 5728 5728 5727 5726 5727 5727 5727 5727 5727 5728 5728 5728 5728 5729 5729 5729 5729
5753 5750 5748 5745 5743 5740 5738 5735 5733 5731 5729 5727 5725 5723 5721 5719 5718 5717 5716 5716 5716 5715 5715 5714 5714 5715 5715 5715 5715 5715 5715 5715 5715 5715 5716 5717 5718 5718 5719 5719 5720 5720 5720